When you browse on this site, cookies collect data to enhance your experience and personalize the content and advertising you see.
Visit our Privacy Policy to learn more. By continuing to use the site, you agree to this use of cookies and data.
  • In Lithuania
  • List of Countries
  • For 7 days
  • Water Temperature
  • Satellite Maps
  • Weather Map
  • Weather Widgets
  • user-avatar
    Login

    Hourly Weather Kaprun

    Today, 20 April, Saturday

    Time Temperature Precipitation Wind Pressure Humidity
    00:00 -1°C° 0 mm 2 mps 602 mmHg 82%
    01:00 -2°C° 0 mm 2 mps 602 mmHg 84%
    02:00 -2°C° 0 mm 2 mps 602 mmHg 84%
    03:00 -2°C° 0 mm 2 mps 602 mmHg 85%
    04:00 -2°C° 0 mm 2 mps 601 mmHg 85%
    05:00 -1°C° 0 mm 2 mps 602 mmHg 80%
    06:00 +1°C° 0 mm 2 mps 602 mmHg 74%
    07:00 +3°C° 0 mm 1 mps 603 mmHg 69%
    08:00 +5°C° 0 mm 1 mps 604 mmHg 57%
    09:00 +8°C° 0 mm 1 mps 604 mmHg 45%
    10:00 +10°C° 0 mm 1 mps 605 mmHg 34%
    11:00 +11°C° 0 mm 1 mps 605 mmHg 31%
    12:00 +11°C° 0 mm 1 mps 605 mmHg 29%
    13:00 +12°C° 0 mm 1 mps 605 mmHg 27%
    14:00 +12°C° 0 mm 1 mps 605 mmHg 28%
    15:00 +12°C° 0 mm 1 mps 605 mmHg 29%
    16:00 +11°C° 0 mm 1 mps 604 mmHg 31%
    17:00 +9°C° 0 mm 1 mps 603 mmHg 43%
    18:00 +6°C° 0 mm 1 mps 602 mmHg 56%
    19:00 +2°C° 0 mm 0 mps 600 mmHg 68%
    20:00 +3°C° 0 mm 1 mps 600 mmHg 70%
    21:00 +2°C° 0 mm 1 mps 600 mmHg 72%
    22:00 +1°C° 0 mm 2 mps 601 mmHg 73%
    23:00 +1°C° 0 mm 2 mps 600 mmHg 75%

    Tomorrow, 21 April, Sunday

    Time Temperature Precipitation Wind Pressure Humidity
    00:00 -1°C° 0 mm 2 mps 600 mmHg 76%
    01:00 -1°C° 0 mm 2 mps 600 mmHg 78%
    02:00 -1°C° 0 mm 2 mps 600 mmHg 78%
    03:00 -1°C° 0 mm 2 mps 599 mmHg 79%
    04:00 +1°C° 0 mm 1 mps 599 mmHg 79%
    05:00 +2°C° 0 mm 1 mps 600 mmHg 74%
    06:00 +3°C° 0 mm 1 mps 600 mmHg 69%
    07:00 +5°C° 0 mm 1 mps 600 mmHg 63%
    08:00 +7°C° 0 mm 1 mps 601 mmHg 54%
    09:00 +9°C° 0 mm 1 mps 602 mmHg 45%
    10:00 +11°C° 0 mm 1 mps 602 mmHg 36%
    11:00 +12°C° 0 mm 1 mps 602 mmHg 35%
    12:00 +13°C° 0 mm 1 mps 602 mmHg 33%
    13:00 +13°C° 0 mm 1 mps 602 mmHg 32%
    14:00 +13°C° 0 mm 1 mps 601 mmHg 35%
    15:00 +12°C° 0 mm 1 mps 601 mmHg 38%
    16:00 +12°C° 0 mm 1 mps 600 mmHg 41%
    17:00 +10°C° 0 mm 1 mps 599 mmHg 53%
    18:00 +7°C° 0 mm 1 mps 598 mmHg 65%
    19:00 +5°C° 0 mm 1 mps 597 mmHg 77%
    20:00 +4°C° 0 mm 1 mps 597 mmHg 80%
    21:00 +3°C° 0 mm 2 mps 597 mmHg 82%
    22:00 +2°C° 0 mm 2 mps 597 mmHg 84%
    23:00 +2°C° 0 mm 2 mps 597 mmHg 85%

    Day after tomorrow, 22 April, Monday

    Time Temperature Precipitation Wind Pressure Humidity
    00:00 +1°C° 0 mm 3 mps 596 mmHg 85%
    01:00 +1°C° 0 mm 3 mps 596 mmHg 86%
    02:00 0°C° 0 mm 3 mps 596 mmHg 86%
    03:00 0°C° 0 mm 3 mps 595 mmHg 87%
    04:00 0°C° 0 mm 3 mps 595 mmHg 88%
    05:00 +1°C° 0 mm 3 mps 595 mmHg 83%
    06:00 +2°C° 0 mm 3 mps 595 mmHg 78%
    07:00 +3°C° 0 mm 2 mps 594 mmHg 73%
    08:00 +6°C° 0 mm 2 mps 595 mmHg 59%
    09:00 +8°C° 0 mm 2 mps 596 mmHg 46%
    10:00 +10°C° 0 mm 2 mps 596 mmHg 32%
    11:00 +12°C° 0 mm 2 mps 596 mmHg 32%
    12:00 +13°C° 0 mm 2 mps 596 mmHg 31%
    13:00 +12°C° 0 mm 3 mps 595 mmHg 31%
    14:00 +12°C° 0 mm 3 mps 595 mmHg 35%
    15:00 +11°C° 0 mm 3 mps 594 mmHg 39%
    16:00 +11°C° 0 mm 3 mps 593 mmHg 43%
    17:00 +8°C° 0 mm 3 mps 592 mmHg 54%
    18:00 +5°C° 0 mm 3 mps 591 mmHg 65%
    19:00 +3°C° 0 mm 3 mps 590 mmHg 76%
    20:00 +1°C° 0 mm 4 mps 589 mmHg 77%
    21:00 +1°C° 0 mm 4 mps 589 mmHg 79%
    22:00 0°C° 0 mm 5 mps 589 mmHg 80%
    23:00 0°C° 0 mm 5 mps 588 mmHg 80%

    23 April, Tuesday

    Time Temperature Precipitation Wind Pressure Humidity
    00:00 -1°C° 0 mm 4 mps 588 mmHg 81%
    01:00 -1°C° 0 mm 4 mps 587 mmHg 81%
    02:00 -1°C° 0.1 mm 4 mps 587 mmHg 81%
    03:00 0°C° 0.1 mm 4 mps 587 mmHg 82%
    04:00 +1°C° 0.1 mm 3 mps 586 mmHg 82%
    05:00 +1°C° 0.1 mm 3 mps 586 mmHg 80%
    06:00 +2°C° 0.1 mm 3 mps 586 mmHg 79%
    07:00 +2°C° 0.1 mm 3 mps 587 mmHg 77%
    08:00 +3°C° 0.2 mm 3 mps 587 mmHg 74%
    09:00 +4°C° 0.2 mm 3 mps 588 mmHg 71%
    10:00 +5°C° 0.2 mm 3 mps 588 mmHg 68%
    11:00 +7°C° 0.2 mm 3 mps 588 mmHg 66%
    12:00 +7°C° 0.2 mm 4 mps 589 mmHg 64%
    13:00 +7°C° 0.2 mm 4 mps 589 mmHg 62%
    14:00 +7°C° 0.1 mm 4 mps 589 mmHg 62%
    15:00 +7°C° 0.1 mm 4 mps 589 mmHg 63%
    16:00 +7°C° 0.1 mm 4 mps 589 mmHg 63%
    17:00 +6°C° 0 mm 4 mps 589 mmHg 69%
    18:00 +5°C° 0 mm 4 mps 588 mmHg 75%
    19:00 +3°C° 0 mm 4 mps 588 mmHg 82%
    20:00 +3°C° 0 mm 4 mps 588 mmHg 83%
    21:00 +1°C° 0 mm 4 mps 589 mmHg 84%
    22:00 +1°C° 0 mm 4 mps 589 mmHg 85%
    23:00 +1°C° 0.1 mm 4 mps 590 mmHg 85%

    24 April, Wednesday

    Time Temperature Precipitation Wind Pressure Humidity
    00:00 +1°C° 0.1 mm 4 mps 590 mmHg 85%
    01:00 +2°C° 0.1 mm 3 mps 590 mmHg 85%
    02:00 +2°C° 0.1 mm 3 mps 591 mmHg 86%
    03:00 +2°C° 0.1 mm 3 mps 591 mmHg 86%
    04:00 +2°C° 0.1 mm 3 mps 591 mmHg 87%
    05:00 +2°C° 0 mm 3 mps 592 mmHg 85%
    06:00 +3°C° 0 mm 3 mps 593 mmHg 83%
    07:00 +4°C° 0 mm 3 mps 594 mmHg 82%
    08:00 +5°C° 0.1 mm 3 mps 594 mmHg 77%
    09:00 +7°C° 0.1 mm 3 mps 595 mmHg 72%
    10:00 +9°C° 0.1 mm 3 mps 596 mmHg 67%
    11:00 +9°C° 0.2 mm 3 mps 596 mmHg 66%
    12:00 +9°C° 0.2 mm 3 mps 596 mmHg 64%
    13:00 +10°C° 0.2 mm 3 mps 597 mmHg 63%
    14:00 +10°C° 0.1 mm 3 mps 597 mmHg 62%
    15:00 +10°C° 0.1 mm 3 mps 597 mmHg 61%
    16:00 +10°C° 0.1 mm 3 mps 597 mmHg 59%
    17:00 +8°C° 0 mm 3 mps 596 mmHg 66%
    18:00 +7°C° 0 mm 3 mps 596 mmHg 73%
    19:00 +4°C° 0 mm 3 mps 595 mmHg 80%
    20:00 +4°C° 0 mm 3 mps 596 mmHg 82%
    21:00 +3°C° 0 mm 3 mps 596 mmHg 84%
    22:00 +3°C° 0 mm 3 mps 596 mmHg 86%
    23:00 +1°C° 0 mm 4 mps 596 mmHg 87%

    25 April, Thursday

    Time Temperature Precipitation Wind Pressure Humidity
    00:00 +1°C° 0 mm 4 mps 596 mmHg 87%
    01:00 +1°C° 0 mm 4 mps 595 mmHg 87%
    02:00 +1°C° 0 mm 4 mps 595 mmHg 86%
    03:00 +1°C° 0 mm 4 mps 595 mmHg 86%
    04:00 +1°C° 0 mm 4 mps 595 mmHg 86%
    05:00 +3°C° 0 mm 4 mps 595 mmHg 82%
    06:00 +3°C° 0 mm 4 mps 595 mmHg 78%
    07:00 +4°C° 0 mm 4 mps 596 mmHg 74%
    08:00 +6°C° 0 mm 4 mps 596 mmHg 66%
    09:00 +8°C° 0 mm 4 mps 597 mmHg 58%
    10:00 +11°C° 0 mm 4 mps 597 mmHg 49%
    11:00 +12°C° 0 mm 5 mps 597 mmHg 49%
    12:00 +12°C° 0 mm 5 mps 597 mmHg 48%
    13:00 +13°C° 0 mm 5 mps 597 mmHg 47%
    14:00 +12°C° 0 mm 5 mps 596 mmHg 52%
    15:00 +9°C° 0 mm 5 mps 595 mmHg 57%
    16:00 +8°C° 0 mm 5 mps 594 mmHg 63%
    17:00 +7°C° 0 mm 5 mps 593 mmHg 68%
    18:00 +6°C° 0 mm 4 mps 593 mmHg 74%
    19:00 +5°C° 0 mm 4 mps 592 mmHg 79%
    20:00 +4°C° 0 mm 4 mps 592 mmHg 80%
    21:00 +4°C° 0 mm 4 mps 592 mmHg 81%
    22:00 +3°C° 0 mm 4 mps 592 mmHg 83%
    23:00 +3°C° 0 mm 3 mps 592 mmHg 84%
    Show more